QPF
0.01 0.01 0.01 0.02 0.02 0.01 0.01 0.01 0.02 0.02 0.02 0.04 0.04 0.03 0.04 0.04 0.05 0.05 0.07 0.07 0.06 0.06 0.06 0.06 0.09 0.11 0.09 0.11 0.10 0.09 0.08 0.06 0.06 0.08 0.08 0.06 0.07 0.09 0.15 0.16 0.13 0.10 0.05 0.03
0.01 0.01 0.01 0.01 0.02 0.02 0.01 0.02 0.02 0.02 0.02 0.03 0.03 0.03 0.04 0.05 0.06 0.07 0.08 0.06 0.05 0.05 0.06 0.06 0.09 0.14 0.10 0.11 0.10 0.08 0.08 0.06 0.05 0.06 0.08 0.07 0.07 0.08 0.12 0.15 0.15 0.12 0.07 0.04
0.01 0.00 0.01 0.02 0.02 0.02 0.02 0.02 0.01 0.01 0.01 0.02 0.02 0.03 0.04 0.05 0.05 0.05 0.05 0.05 0.05 0.05 0.06 0.07 0.08 0.14 0.11 0.09 0.09 0.07 0.07 0.07 0.05 0.04 0.04 0.05 0.05 0.04 0.08 0.12 0.14 0.15 0.12 0.07
0.01 0.01 0.01 0.01 0.01 0.01 0.01 0.01 0.01 0.01 0.01 0.01 0.02 0.03 0.02 0.04 0.04 0.03 0.04 0.04 0.05 0.05 0.06 0.06 0.08 0.12 0.11 0.08 0.08 0.06 0.06 0.04 0.03 0.03 0.02 0.02 0.02 0.02 0.03 0.07 0.09 0.10 0.10 0.07
0.01 0.01 0.01 0.00 0.00 0.00 0.00 0.01 0.01 0.01 0.01 0.01 0.01 0.02 0.03 0.04 0.03 0.04 0.05 0.04 0.04 0.05 0.06 0.06 0.07 0.09 0.10 0.08 0.08 0.06 0.05 0.05 0.03 0.01 0.01 0.00 0.01 0.01 0.01 0.03 0.07 0.07 0.07 0.05
0.01 0.00 0.00 0.00 0.00 0.00 0.00 0.01 0.01 0.01 0.02 0.02 0.01 0.01 0.01 0.01 0.03 0.05 0.06 0.05 0.04 0.05 0.05 0.05 0.06 0.07 0.07 0.07 0.07 0.06 0.05 0.04 0.03 0.01 0.01 0.00 0.00 0.00 0.00 0.01 0.02 0.05 0.06 0.04
0.01 0.00 0.00 0.00 0.00 0.00 0.01 0.01 0.01 0.02 0.02 0.02 0.00 0.00 0.00 0.00 0.01 0.02 0.04 0.04 0.03 0.04 0.04 0.04 0.04 0.04 0.04 0.04 0.04 0.03 0.03 0.02 0.02 0.01 0.01 0.00 0.00 0.00 0.00 0.00 0.02 0.03 0.05 0.05
0.00 0.00 0.00 0.00 0.00 0.00 0.00 0.01 0.01 0.01 0.01 0.01 0.00 0.00 0.00 0.00 0.00 0.00 0.01 0.02 0.02 0.02 0.02 0.02 0.02 0.02 0.02 0.01 0.01 0.01 0.01 0.01 0.01 0.01 0.00 0.00 0.00 0.00 0.00 0.00 0.01 0.02 0.03 0.04
0.00 0.00 0.00 0.00 0.00 0.00 0.00 0.00 0.00 0.00 0.00 0.00 0.00 0.00 0.00 0.00 0.00 0.00 0.00 0.00 0.01 0.01 0.01 0.01 0.01 0.01 0.00 0.00 0.00 0.01 0.00 0.00 0.00 0.00 0.00 0.00 0.00 0.00 0.00 0.00 0.00 0.01 0.03 0.03
0.00 0.00 0.00 0.00 0.00 0.00 0.00 0.00 0.00 0.00 0.00 0.00 0.00 0.00 0.00 0.00 0.00 0.00 0.00 0.01 0.00 0.00 0.01 0.01 0.01 0.01 0.01 0.00 0.00 0.00 0.00 0.00 0.00 0.00 0.00 0.00 0.00 0.00 0.00 0.00 0.00 0.01 0.02 0.03
0.00 0.00 0.00 0.00 0.00 0.00 0.00 0.00 0.00 0.00 0.00 0.00 0.00 0.00 0.00 0.00 0.00 0.01 0.01 0.01 0.01 0.00 0.01 0.00 0.00 0.00 0.00 0.00 0.00 0.00 0.00 0.00 0.00 0.00 0.00 0.00 0.00 0.00 0.00 0.00 0.00 0.00 0.01 0.02
0.00 0.00 0.00 0.00 0.00 0.00 0.00 0.00 0.00 0.00 0.00 0.00 0.00 0.00 0.00 0.00 0.00 0.01 0.01 0.01 0.01 0.01 0.01 0.00 0.00 0.00 0.00 0.00 0.00 0.00 0.00 0.00 0.00 0.00 0.00 0.00 0.00 0.00 0.00 0.00 0.00 0.00 0.00 0.01
0.00 0.00 0.00 0.00 0.00 0.00 0.00 0.00 0.01 0.01 0.00 0.00 0.01 0.00 0.00 0.00 0.00 0.00 0.01 0.01 0.00 0.00 0.01 0.01 0.01 0.01 0.01 0.01 0.01 0.01 0.01 0.01 0.00 0.00 0.01 0.01 0.00 0.00 0.00 0.00 0.00 0.00 0.00 0.00
0.00 0.00 0.00 0.00 0.00 0.00 0.00 0.00 0.00 0.00 0.00 0.01 0.00 0.00 0.00 0.00 0.00 0.00 0.01 0.01 0.01 0.01 0.01 0.01 0.01 0.01 0.02 0.01 0.01 0.01 0.01 0.01 0.00 0.00 0.01 0.01 0.01 0.00 0.00 0.00 0.00 0.00 0.00 0.00
0.00 0.00 0.00 0.00 0.00 0.00 0.00 0.00 0.00 0.00 0.00 0.00 0.00 0.00 0.00 0.00 0.00 0.01 0.01 0.01 0.01 0.01 0.02 0.01 0.01 0.01 0.01 0.01 0.01 0.01 0.01 0.01 0.01 0.00 0.01 0.01 0.01 0.00 0.00 0.00 0.00 0.00 0.00 0.00
0.00 0.00 0.00 0.00 0.00 0.00 0.00 0.00 0.00 0.00 0.00 0.00 0.00 0.00 0.00 0.00 0.00 0.00 0.01 0.01 0.01 0.02 0.02 0.02 0.01 0.01 0.02 0.01 0.01 0.01 0.01 0.01 0.01 0.01 0.01 0.02 0.01 0.01 0.01 0.00 0.01 0.00 0.00 0.00
0.00 0.00 0.00 0.00 0.00 0.00 0.00 0.00 0.00 0.00 0.00 0.00 0.00 0.00 0.00 0.00 0.00 0.00 0.00 0.00 0.01 0.02 0.02 0.02 0.03 0.03 0.03 0.02 0.02 0.02 0.01 0.01 0.01 0.01 0.01 0.02 0.01 0.01 0.01 0.01 0.01 0.01 0.00 0.00
0.00 0.00 0.00 0.00 0.00 0.00 0.00 0.00 0.00 0.00 0.00 0.00 0.00 0.00 0.00 0.00 0.00 0.00 0.00 0.00 0.00 0.01 0.01 0.02 0.02 0.03 0.03 0.03 0.03 0.02 0.01 0.01 0.01 0.01 0.01 0.01 0.01 0.01 0.02 0.01 0.02 0.01 0.01 0.01
0.00 0.00 0.01 0.00 0.00 0.00 0.00 0.00 0.00 0.00 0.00 0.00 0.00 0.00 0.00 0.00 0.00 0.00 0.00 0.00 0.00 0.00 0.01 0.01 0.01 0.01 0.02 0.02 0.02 0.01 0.01 0.01 0.01 0.01 0.01 0.01 0.01 0.02 0.02 0.01 0.02 0.02 0.01 0.01
0.00 0.01 0.01 0.01 0.01 0.00 0.00 0.00 0.00 0.00 0.00 0.00 0.00 0.00 0.00 0.00 0.00 0.00 0.00 0.00 0.00 0.00 0.00 0.00 0.01 0.01 0.01 0.01 0.01 0.01 0.01 0.01 0.01 0.01 0.01 0.01 0.01 0.02 0.02 0.02 0.02 0.02 0.01 0.01
0.00 0.00 0.01 0.01 0.01 0.00 0.00 0.00 0.00 0.00 0.00 0.00 0.00 0.00 0.00 0.00 0.00 0.00 0.00 0.00 0.00 0.00 0.00 0.00 0.00 0.00 0.00 0.00 0.00 0.00 0.00 0.00 0.01 0.01 0.01 0.01 0.01 0.02 0.02 0.03 0.02 0.02 0.01 0.01
0.00 0.00 0.00 0.00 0.01 0.00 0.00 0.00 0.00 0.00 0.00 0.00 0.00 0.00 0.00 0.00 0.00 0.00 0.00 0.00 0.00 0.00 0.00 0.00 0.00 0.00 0.00 0.00 0.00 0.00 0.00 0.00 0.00 0.00 0.00 0.01 0.01 0.02 0.02 0.03 0.03 0.02 0.02 0.01
0.00 0.00 0.00 0.00 0.00 0.00 0.00 0.00 0.00 0.00 0.00 0.00 0.00 0.00 0.00 0.00 0.00 0.00 0.00 0.00 0.00 0.00 0.00 0.00 0.00 0.00 0.00 0.00 0.00 0.00 0.00 0.00 0.00 0.00 0.00 0.01 0.01 0.01 0.02 0.02 0.02 0.02 0.02 0.01
0.00 0.00 0.00 0.00 0.00 0.00 0.00 0.00 0.00 0.00 0.00 0.00 0.00 0.00 0.00 0.00 0.00 0.00 0.00 0.00 0.00 0.00 0.00 0.00 0.00 0.00 0.00 0.00 0.00 0.00 0.00 0.00 0.00 0.00 0.00 0.00 0.00 0.01 0.01 0.01 0.02 0.02 0.02 0.02
0.00 0.00 0.00 0.00 0.00 0.00 0.00 0.00 0.00 0.00 0.00 0.00 0.00 0.00 0.00 0.00 0.00 0.00 0.00 0.00 0.00 0.00 0.00 0.00 0.00 0.00 0.00 0.00 0.00 0.00 0.00 0.00 0.00 0.00 0.00 0.00 0.00 0.00 0.01 0.01 0.02 0.02 0.02 0.01
0.00 0.00 0.00 0.00 0.00 0.00 0.00 0.00 0.00 0.00 0.00 0.00 0.00 0.00 0.00 0.00 0.00 0.00 0.00 0.00 0.00 0.00 0.00 0.00 0.00 0.00 0.00 0.00 0.00 0.00 0.00 0.00 0.00 0.00 0.00 0.00 0.00 0.00 0.01 0.01 0.01 0.01 0.01 0.01
MSLP
1014.54 1014.38 1014.11 1013.76 1013.41 1013.10 1012.86 1012.70 1012.57 1012.43 1012.25 1011.98 1011.63 1011.20 1010.76 1010.36 1010.07 1009.95 1010.03 1010.31 1010.77 1011.36 1012.04 1012.75 1013.46 1014.12 1014.75 1015.33 1015.87 1016.39 1016.88 1017.36 1017.80 1018.20 1018.56 1018.85 1019.10 1019.29 1019.45 1019.58 1019.70 1019.82 1019.95 1020.08
1013.88 1013.69 1013.38 1013.01 1012.63 1012.31 1012.08 1011.96 1011.90 1011.87 1011.81 1011.68 1011.46 1011.16 1010.81 1010.47 1010.20 1010.06 1010.09 1010.30 1010.69 1011.21 1011.83 1012.50 1013.18 1013.84 1014.48 1015.08 1015.65 1016.20 1016.73 1017.23 1017.70 1018.12 1018.48 1018.78 1019.01 1019.19 1019.32 1019.44 1019.55 1019.67 1019.81 1019.97
1013.20 1013.00 1012.68 1012.31 1011.95 1011.67 1011.49 1011.43 1011.46 1011.53 1011.57 1011.55 1011.43 1011.21 1010.92 1010.61 1010.33 1010.16 1010.14 1010.28 1010.58 1011.03 1011.59 1012.21 1012.86 1013.50 1014.13 1014.74 1015.34 1015.92 1016.48 1017.01 1017.51 1017.95 1018.33 1018.63 1018.87 1019.04 1019.16 1019.27 1019.38 1019.50 1019.65 1019.83
1012.63 1012.44 1012.15 1011.82 1011.51 1011.29 1011.18 1011.19 1011.30 1011.44 1011.57 1011.61 1011.55 1011.36 1011.09 1010.77 1010.47 1010.25 1010.17 1010.24 1010.48 1010.86 1011.36 1011.93 1012.54 1013.17 1013.79 1014.40 1015.00 1015.59 1016.17 1016.73 1017.25 1017.72 1018.12 1018.44 1018.69 1018.86 1018.99 1019.10 1019.21 1019.34 1019.50 1019.69
1012.30 1012.13 1011.88 1011.61 1011.37 1011.21 1011.17 1011.25 1011.41 1011.60 1011.75 1011.82 1011.76 1011.57 1011.28 1010.93 1010.59 1010.33 1010.19 1010.22 1010.41 1010.75 1011.20 1011.74 1012.32 1012.92 1013.52 1014.12 1014.70 1015.29 1015.87 1016.43 1016.97 1017.45 1017.87 1018.22 1018.48 1018.68 1018.82 1018.94 1019.06 1019.19 1019.36 1019.55
1012.25 1012.10 1011.89 1011.67 1011.50 1011.41 1011.42 1011.54 1011.72 1011.91 1012.06 1012.09 1012.00 1011.77 1011.43 1011.05 1010.68 1010.39 1010.23 1010.24 1010.42 1010.74 1011.19 1011.71 1012.28 1012.85 1013.42 1013.98 1014.53 1015.08 1015.63 1016.18 1016.70 1017.19 1017.62 1017.99 1018.28 1018.50 1018.66 1018.80 1018.92 1019.06 1019.22 1019.40
1012.46 1012.32 1012.14 1011.96 1011.83 1011.77 1011.82 1011.94 1012.11 1012.27 1012.36 1012.34 1012.18 1011.90 1011.52 1011.10 1010.72 1010.43 1010.29 1010.32 1010.53 1010.88 1011.35 1011.88 1012.44 1012.99 1013.52 1014.03 1014.52 1015.01 1015.51 1016.00 1016.50 1016.96 1017.39 1017.77 1018.08 1018.32 1018.51 1018.66 1018.79 1018.93 1019.07 1019.23
1012.85 1012.70 1012.53 1012.36 1012.24 1012.19 1012.23 1012.33 1012.45 1012.54 1012.56 1012.47 1012.25 1011.91 1011.50 1011.08 1010.71 1010.47 1010.38 1010.48 1010.75 1011.16 1011.67 1012.23 1012.80 1013.33 1013.82 1014.26 1014.69 1015.09 1015.51 1015.93 1016.36 1016.79 1017.20 1017.57 1017.89 1018.14 1018.35 1018.51 1018.65 1018.78 1018.90 1019.04
1013.31 1013.14 1012.94 1012.76 1012.63 1012.56 1012.55 1012.60 1012.65 1012.67 1012.61 1012.45 1012.17 1011.80 1011.39 1010.99 1010.67 1010.50 1010.50 1010.69 1011.05 1011.54 1012.12 1012.72 1013.29 1013.81 1014.26 1014.64 1014.98 1015.29 1015.61 1015.95 1016.31 1016.68 1017.05 1017.40 1017.71 1017.98 1018.18 1018.35 1018.49 1018.60 1018.71 1018.83
1013.74 1013.52 1013.29 1013.07 1012.90 1012.78 1012.72 1012.70 1012.68 1012.62 1012.50 1012.28 1011.97 1011.59 1011.20 1010.86 1010.62 1010.53 1010.64 1010.93 1011.39 1011.96 1012.60 1013.23 1013.82 1014.32 1014.73 1015.06 1015.32 1015.55 1015.79 1016.04 1016.32 1016.63 1016.96 1017.27 1017.57 1017.82 1018.03 1018.19 1018.32 1018.42 1018.52 1018.61
1014.04 1013.78 1013.51 1013.26 1013.04 1012.87 1012.75 1012.66 1012.57 1012.44 1012.26 1012.01 1011.69 1011.34 1010.99 1010.71 1010.56 1010.58 1010.78 1011.16 1011.69 1012.33 1013.02 1013.68 1014.27 1014.76 1015.14 1015.42 1015.63 1015.80 1015.97 1016.16 1016.38 1016.64 1016.92 1017.20 1017.47 1017.71 1017.90 1018.06 1018.18 1018.27 1018.35 1018.42
1014.22 1013.93 1013.64 1013.35 1013.09 1012.87 1012.69 1012.54 1012.38 1012.20 1011.98 1011.72 1011.41 1011.09 1010.80 1010.60 1010.53 1010.62 1010.89 1011.34 1011.92 1012.59 1013.29 1013.95 1014.54 1015.03 1015.39 1015.66 1015.85 1015.99 1016.13 1016.28 1016.47 1016.70 1016.94 1017.20 1017.44 1017.66 1017.84 1017.98 1018.08 1018.16 1018.23 1018.29
1014.30 1014.02 1013.71 1013.41 1013.13 1012.86 1012.63 1012.42 1012.21 1011.99 1011.74 1011.47 1011.18 1010.89 1010.66 1010.52 1010.51 1010.66 1010.97 1011.44 1012.03 1012.69 1013.38 1014.03 1014.61 1015.09 1015.46 1015.73 1015.93 1016.09 1016.24 1016.40 1016.59 1016.80 1017.04 1017.28 1017.50 1017.70 1017.86 1017.98 1018.07 1018.14 1018.19 1018.24
1014.35 1014.09 1013.81 1013.51 1013.21 1012.92 1012.65 1012.38 1012.12 1011.86 1011.58 1011.30 1011.02 1010.77 1010.58 1010.48 1010.51 1010.68 1011.00 1011.46 1012.02 1012.65 1013.30 1013.92 1014.48 1014.96 1015.35 1015.66 1015.91 1016.12 1016.31 1016.52 1016.73 1016.97 1017.20 1017.44 1017.65 1017.83 1017.98 1018.08 1018.15 1018.20 1018.23 1018.26
1014.43 1014.22 1013.97 1013.69 1013.39 1013.08 1012.76 1012.44 1012.12 1011.81 1011.50 1011.20 1010.92 1010.69 1010.53 1010.47 1010.52 1010.70 1011.00 1011.42 1011.94 1012.51 1013.11 1013.70 1014.24 1014.73 1015.15 1015.52 1015.83 1016.12 1016.38 1016.65 1016.91 1017.18 1017.43 1017.67 1017.87 1018.04 1018.16 1018.24 1018.29 1018.32 1018.33 1018.34
1014.55 1014.40 1014.20 1013.94 1013.64 1013.31 1012.94 1012.56 1012.18 1011.81 1011.45 1011.13 1010.85 1010.64 1010.50 1010.46 1010.52 1010.70 1010.99 1011.37 1011.84 1012.36 1012.91 1013.46 1013.99 1014.49 1014.95 1015.38 1015.77 1016.13 1016.48 1016.81 1017.13 1017.42 1017.70 1017.94 1018.13 1018.28 1018.38 1018.44 1018.46 1018.46 1018.44 1018.41
1014.69 1014.60 1014.44 1014.21 1013.90 1013.53 1013.11 1012.67 1012.22 1011.79 1011.39 1011.04 1010.76 1010.56 1010.45 1010.43 1010.53 1010.72 1011.00 1011.37 1011.80 1012.28 1012.79 1013.31 1013.84 1014.35 1014.84 1015.32 1015.77 1016.20 1016.61 1017.00 1017.35 1017.67 1017.95 1018.19 1018.37 1018.50 1018.58 1018.61 1018.61 1018.58 1018.52 1018.45
1014.81 1014.75 1014.61 1014.37 1014.05 1013.64 1013.17 1012.66 1012.15 1011.66 1011.23 1010.86 1010.59 1010.42 1010.35 1010.40 1010.54 1010.77 1011.07 1011.45 1011.87 1012.34 1012.83 1013.34 1013.85 1014.37 1014.88 1015.39 1015.88 1016.34 1016.79 1017.19 1017.56 1017.89 1018.15 1018.37 1018.53 1018.63 1018.69 1018.70 1018.67 1018.61 1018.53 1018.41
1014.81 1014.75 1014.60 1014.35 1013.99 1013.54 1013.02 1012.46 1011.91 1011.38 1010.93 1010.58 1010.34 1010.22 1010.23 1010.35 1010.57 1010.87 1011.23 1011.64 1012.09 1012.56 1013.05 1013.55 1014.06 1014.57 1015.08 1015.58 1016.07 1016.54 1016.98 1017.37 1017.72 1018.02 1018.26 1018.44 1018.57 1018.65 1018.68 1018.67 1018.62 1018.54 1018.42 1018.27
1014.64 1014.54 1014.35 1014.06 1013.67 1013.18 1012.63 1012.04 1011.47 1010.95 1010.52 1010.20 1010.03 1009.99 1010.09 1010.31 1010.63 1011.03 1011.47 1011.94 1012.43 1012.93 1013.42 1013.92 1014.41 1014.90 1015.38 1015.85 1016.31 1016.74 1017.14 1017.49 1017.79 1018.04 1018.23 1018.37 1018.47 1018.52 1018.53 1018.50 1018.44 1018.34 1018.20 1018.02
1014.28 1014.10 1013.85 1013.51 1013.08 1012.58 1012.01 1011.43 1010.88 1010.39 1010.02 1009.78 1009.69 1009.76 1009.97 1010.31 1010.74 1011.23 1011.76 1012.31 1012.84 1013.37 1013.87 1014.35 1014.82 1015.27 1015.71 1016.13 1016.53 1016.90 1017.23 1017.52 1017.76 1017.95 1018.09 1018.18 1018.24 1018.26 1018.26 1018.22 1018.14 1018.04 1017.89 1017.69
1013.75 1013.47 1013.14 1012.75 1012.29 1011.78 1011.24 1010.70 1010.21 1009.80 1009.52 1009.38 1009.40 1009.58 1009.90 1010.35 1010.88 1011.47 1012.07 1012.68 1013.25 1013.79 1014.30 1014.77 1015.20 1015.61 1015.99 1016.35 1016.68 1016.98 1017.24 1017.46 1017.64 1017.77 1017.86 1017.91 1017.94 1017.93 1017.91 1017.86 1017.78 1017.66 1017.50 1017.29
1013.10 1012.70 1012.29 1011.86 1011.39 1010.90 1010.42 1009.96 1009.57 1009.27 1009.10 1009.07 1009.20 1009.49 1009.91 1010.44 1011.05 1011.70 1012.36 1012.99 1013.59 1014.13 1014.63 1015.07 1015.47 1015.83 1016.16 1016.46 1016.73 1016.97 1017.17 1017.33 1017.45 1017.53 1017.58 1017.60 1017.60 1017.57 1017.53 1017.46 1017.37 1017.24 1017.07 1016.84
1012.39 1011.89 1011.41 1010.94 1010.49 1010.06 1009.66 1009.31 1009.03 1008.86 1008.81 1008.90 1009.14 1009.51 1010.00 1010.58 1011.23 1011.90 1012.57 1013.21 1013.80 1014.33 1014.80 1015.21 1015.58 1015.90 1016.19 1016.44 1016.67 1016.86 1017.02 1017.14 1017.23 1017.29 1017.31 1017.30 1017.28 1017.23 1017.16 1017.07 1016.95 1016.80 1016.60 1016.36
1011.69 1011.09 1010.56 1010.09 1009.68 1009.33 1009.03 1008.81 1008.67 1008.63 1008.70 1008.89 1009.20 1009.63 1010.15 1010.75 1011.40 1012.06 1012.70 1013.31 1013.87 1014.38 1014.82 1015.20 1015.53 1015.83 1016.09 1016.32 1016.52 1016.69 1016.84 1016.94 1017.02 1017.06 1017.07 1017.05 1017.00 1016.92 1016.82 1016.70 1016.54 1016.35 1016.11 1015.83
1011.01 1010.35 1009.80 1009.36 1009.02 1008.76 1008.59 1008.50 1008.50 1008.58 1008.76 1009.03 1009.39 1009.84 1010.36 1010.94 1011.55 1012.16 1012.76 1013.32 1013.84 1014.30 1014.71 1015.07 1015.38 1015.66 1015.90 1016.13 1016.32 1016.50 1016.64 1016.75 1016.82 1016.86 1016.86 1016.82 1016.75 1016.64 1016.50 1016.33 1016.12 1015.87 1015.59 1015.26
Thickness
5578 5572 5569 5575 5579 5583 5585 5586 5588 5592 5597 5595 5594 5599 5606 5611 5612 5612 5614 5616 5616 5618 5622 5625 5627 5630 5632 5634 5634 5633 5633 5632 5631 5629 5628 5627 5626 5626 5626 5626 5625 5624 5623 5622
5573 5570 5576 5580 5582 5583 5585 5584 5586 5590 5596 5594 5594 5598 5606 5609 5609 5611 5613 5614 5615 5617 5620 5621 5622 5624 5625 5627 5627 5627 5626 5625 5625 5625 5623 5622 5621 5620 5619 5619 5617 5616 5615 5614
5569 5572 5578 5579 5579 5580 5583 5583 5584 5584 5589 5593 5593 5593 5602 5607 5610 5612 5614 5616 5616 5617 5617 5618 5619 5619 5619 5621 5621 5623 5621 5620 5619 5618 5617 5616 5614 5612 5611 5610 5609 5608 5607 5606
5571 5574 5575 5576 5577 5579 5577 5584 5586 5584 5580 5579 5587 5576 5599 5606 5606 5609 5610 5612 5614 5615 5615 5615 5616 5615 5614 5615 5616 5616 5615 5614 5613 5612 5610 5608 5606 5604 5604 5603 5603 5601 5599 5598
5569 5572 5572 5572 5574 5575 5575 5583 5584 5584 5581 5580 5586 5578 5593 5607 5603 5605 5608 5610 5612 5613 5613 5612 5613 5612 5611 5610 5609 5609 5608 5607 5605 5604 5603 5601 5600 5598 5597 5597 5595 5594 5591 5590
5570 5573 5572 5572 5574 5576 5577 5581 5583 5582 5578 5569 5585 5579 5585 5601 5607 5609 5609 5609 5609 5609 5609 5608 5608 5607 5605 5604 5602 5602 5601 5600 5599 5598 5597 5594 5592 5591 5589 5588 5586 5585 5584 5582
5571 5572 5572 5573 5570 5574 5574 5569 5563 5563 5562 5570 5589 5584 5588 5607 5613 5612 5610 5608 5607 5606 5604 5602 5602 5601 5599 5597 5596 5595 5594 5593 5592 5590 5589 5588 5586 5584 5582 5580 5578 5577 5575 5574
5566 5564 5570 5571 5570 5566 5570 5570 5558 5554 5559 5573 5582 5577 5597 5607 5608 5609 5609 5606 5604 5601 5599 5598 5596 5595 5593 5592 5590 5589 5588 5586 5585 5583 5582 5580 5578 5576 5574 5573 5571 5569 5567 5566
5566 5565 5570 5571 5570 5568 5568 5568 5572 5563 5569 5569 5578 5593 5598 5602 5601 5602 5602 5600 5597 5596 5595 5593 5591 5590 5588 5585 5583 5582 5581 5579 5577 5576 5574 5572 5570 5568 5566 5564 5562 5560 5559 5558
5569 5562 5569 5569 5567 5567 5567 5569 5563 5560 5558 5564 5584 5592 5588 5592 5595 5596 5595 5594 5592 5591 5589 5587 5586 5584 5582 5579 5576 5575 5573 5571 5570 5568 5566 5564 5562 5560 5557 5555 5553 5552 5550 5548
5570 5561 5562 5565 5564 5566 5564 5566 5566 5564 5565 5558 5565 5580 5598 5599 5598 5594 5592 5591 5589 5587 5584 5582 5579 5577 5575 5572 5569 5566 5565 5563 5561 5559 5557 5554 5552 5551 5549 5547 5545 5543 5541 5539
5568 5561 5555 5567 5569 5566 5568 5570 5567 5556 5558 5564 5559 5572 5598 5597 5596 5593 5590 5588 5586 5583 5580 5577 5574 5570 5567 5564 5561 5558 5556 5554 5552 5549 5547 5545 5543 5541 5539 5538 5536 5534 5532 5529
5563 5558 5551 5558 5559 5559 5561 5566 5567 5563 5557 5554 5556 5573 5590 5591 5590 5589 5586 5584 5581 5578 5575 5571 5567 5564 5560 5556 5553 5551 5548 5545 5543 5541 5538 5536 5534 5532 5530 5528 5526 5524 5521 5519
5557 5554 5553 5554 5561 5560 5559 5563 5563 5556 5544 5552 5566 5576 5582 5583 5583 5583 5581 5579 5575 5573 5570 5565 5561 5558 5554 5550 5547 5544 5541 5538 5535 5532 5529 5527 5524 5522 5520 5518 5516 5513 5511 5508
5552 5548 5555 5558 5562 5562 5561 5561 5561 5555 5556 5556 5570 5575 5581 5580 5579 5578 5576 5573 5570 5567 5563 5560 5555 5551 5547 5544 5540 5537 5533 5530 5527 5523 5520 5518 5516 5513 5510 5508 5506 5503 5500 5498
5549 5546 5551 5549 5557 5557 5555 5561 5561 5560 5560 5562 5566 5571 5581 5578 5576 5573 5570 5567 5563 5560 5557 5554 5550 5545 5541 5537 5533 5529 5525 5522 5518 5515 5512 5509 5506 5504 5501 5498 5495 5492 5489 5487
5545 5543 5538 5538 5551 5549 5548 5567 5563 5562 5565 5564 5560 5569 5572 5569 5567 5565 5562 5559 5556 5552 5549 5545 5541 5537 5533 5529 5525 5520 5516 5513 5509 5505 5503 5499 5497 5494 5491 5488 5485 5481 5478 5476
5539 5536 5527 5528 5536 5531 5566 5571 5571 5565 5567 5565 5563 5564 5564 5561 5558 5556 5554 5550 5546 5544 5541 5536 5532 5528 5524 5520 5516 5512 5507 5503 5499 5495 5492 5489 5486 5483 5480 5477 5473 5470 5467 5464
5531 5529 5522 5520 5522 5539 5560 5560 5559 5555 5556 5561 5557 5556 5554 5551 5546 5543 5544 5541 5538 5535 5531 5527 5523 5519 5514 5510 5506 5501 5497 5493 5488 5485 5481 5478 5475 5471 5468 5464 5461 5458 5455 5452
5519 5519 5513 5515 5516 5527 5552 5550 5551 5547 5540 5550 5549 5546 5542 5537 5527 5528 5531 5530 5527 5524 5520 5516 5512 5508 5503 5499 5495 5490 5486 5481 5478 5474 5471 5468 5464 5460 5456 5453 5450 5447 5444 5441
5499 5499 5498 5502 5507 5525 5542 5539 5536 5528 5533 5537 5537 5534 5530 5524 5520 5520 5520 5517 5515 5511 5508 5505 5501 5496 5492 5488 5484 5479 5475 5471 5468 5464 5460 5457 5453 5449 5445 5442 5439 5435 5432 5428
5501 5495 5494 5498 5497 5512 5527 5523 5522 5523 5526 5526 5524 5522 5518 5515 5513 5511 5508 5505 5502 5497 5495 5492 5487 5483 5480 5477 5472 5468 5464 5461 5457 5453 5449 5445 5441 5438 5434 5430 5426 5423 5419 5415
5509 5509 5506 5506 5510 5519 5517 5517 5516 5515 5513 5513 5510 5509 5507 5503 5501 5498 5495 5492 5490 5487 5483 5479 5475 5471 5468 5465 5461 5456 5453 5450 5445 5441 5437 5433 5430 5426 5422 5418 5414 5410 5406 5402
5503 5504 5498 5497 5507 5510 5508 5507 5506 5504 5501 5500 5499 5497 5495 5491 5489 5487 5483 5480 5478 5475 5471 5468 5464 5460 5457 5454 5450 5446 5443 5439 5434 5429 5425 5422 5417 5414 5410 5406 5402 5398 5393 5389
5492 5483 5478 5481 5491 5493 5495 5494 5493 5491 5489 5487 5486 5484 5481 5479 5477 5474 5471 5468 5466 5463 5459 5456 5452 5449 5446 5443 5439 5436 5432 5428 5422 5418 5413 5409 5406 5402 5398 5395 5390 5386 5383 5377
5478 5470 5464 5472 5480 5477 5479 5482 5481 5478 5475 5474 5472 5470 5469 5467 5464 5462 5459 5456 5454 5451 5448 5444 5441 5438 5435 5432 5428 5425 5421 5417 5411 5406 5402 5397 5393 5389 5385 5381 5379 5376 5372 5368